www.pogodaiklimat.ru

АРХИВ ПОГОДЫ в Пенсаколе

Время (UTC), дата Ветер
(напр.,м/с)
 
Видим.   Явления Облачность Т
(С)
Тd
(С)
f
(%)
Тe
(С)
Тes
(С)
Комфортность

P
(гПа)

Po
(гПа)
Тmin
(С)
Tmax
(С)
R
(мм)
SD
(см)
01:53 25.03   16 км    ясно  +15.6  +14.4  93  +15  +15    1021.6  1016.9         
02:53 25.03   16 км    ясно  +15.6  +14.4  93  +15  +15    1021.1  1016.5         
03:53 25.03 ЮЗ  16 км    ясно  +15.0  +14.4  96  +15  +15    1020.6  1015.9         
04:53 25.03 Ю  16 км    ясно  +15.6  +13.9  90  +16  +16    1020.2  1015.5  +15.0  +17.8     
05:53 25.03 ЮЗ  16 км    ясно  +15.6  +14.4  93  +16  +16    1019.7  1015.2         
06:53 25.03 З  16 км    ясно  +15.0  +13.9  93  +15  +15    1019.3  1014.8         
07:53 25.03   16 км    ясно  +14.4  +13.9  97  +14  +14    1018.7  1014.2         
08:53 25.03   16 км    ясно  +13.9  +13.9  100  +13  +13    1018.6  1013.8         
09:53 25.03   16 км    ясно  +15.0  +15.0  100  +15  +15    1018.8  1014.2         
10:53 25.03   10 км  дымка  ясно  +15.0  +15.0  100  +15  +15    1019.2  1014.5  +13.9  +16.1     
11:53 25.03   13 км    5/0 2400 м
[средняя] 
+16.7  +16.7  100  +17  +17    1019.5  1014.8         
12:53 25.03 З  16 км    8/0 2250 м
[средняя] 
+20.0  +16.7  81  +23  +23  комфорт  1019.6  1015.2         
13:53 25.03 З  16 км    10/0 2400 м
[средняя] 
+21.1  +16.1  73  +24  +25  комфорт  1020.6  1015.9         
14:53 25.03 З  16 км    8/0 2250 м
[средняя] 
+22.8  +15.0  61  +27  +28  душно  1020.7  1016.2         
15:53 25.03 З  16 км    10/2 1050 м
[средняя] 
+23.3  +14.4  57  +27  +29  душно  1020.2  1015.5         
16:53 25.03 З  16 км    8/8 1320 м
[средняя] 
+24.4  +13.3  50  +27  +29  жарко  1019.2  1014.5  +14.4  +25.6     
17:53 25.03 Ю  16 км    8/8 1260 м  +24.4  +16.7  62  +28  +29  душно  1018.1  1013.5         
18:53 25.03 Ю  16 км    ясно  +23.3  +16.7  66  +28  +30  душно  1016.8  1012.1         
19:53 25.03 Ю  16 км    ясно  +24.4  +16.7  62  +28  +30  душно  1016.2  1011.5         
20:53 25.03 ЮЗ  9
{11} 
16 км    ясно  +24.4  +15.0  56  +27  +28  жарко  1016.4  1011.8         
21:53 25.03 ЮЗ  16 км    ясно  +23.3  +15.0  60  +27  +29  душно  1016.2  1011.5         
22:53 25.03 ЮЗ  7
{9} 
16 км    ясно  +21.1  +15.6  71  +24  +24  комфорт  1016.3  1011.8  +21.1  +25.0     
23:53 25.03 ЮЗ  16 км    ясно  +20.0  +16.7  81  +23  +23  комфорт  1016.3  1011.8         
00:53 26.03 ЮЗ  16 км    ясно  +19.4  +17.2  87  +21  +21  комфорт  1016.9  1012.5         
01:53 26.03 ЮЗ  16 км    ясно  +18.9  +17.8  93  +20  +20    1017.1  1012.5         
02:53 26.03 З  16 км    ясно  +18.9  +18.3  96  +20  +20    1017.5  1012.8         
03:32 26.03 СЗ  16 км    10/10 420 м  +19.4  +18.3  93  +21  +21  комфорт    1013.8         
03:44 26.03 С  16 км    8/8 690 м  +18.9  +17.8  93  +20  +20      1013.8         
03:53 26.03 С  16 км    5/5 600 м  +18.3  +17.8  97  +19  +19    1018.3  1013.8         
04:53 26.03 С  16 км    5/5 1500 м  +18.3  +15.6  84  +18  +18    1018.4  1013.8  +18.3  +21.1     
05:53 26.03 С  16 км    2/2 1470 м  +17.2  +15.0  87  +17  +17    1018.4  1013.8         
06:53 26.03 С  16 км    2/2 1650 м  +16.1  +12.2  78  +15  +15    1018.2  1013.5         
07:53 26.03 С  16 км    ясно  +15.0  +11.7  81  +13  +13    1018.1  1013.5         
08:53 26.03 С  16 км    ясно  +14.4  +11.7  84  +12  +12    1018.4  1013.8         
09:53 26.03 С  16 км    ясно  +13.3  +11.1  87  +11  +11    1019.1  1014.5         
10:53 26.03 С  16 км    ясно  +12.8  +10.6  86  +10  +10    1019.7  1015.2  +12.8  +18.3     
11:53 26.03 С  16 км    ясно  +13.3  +10.6  84  +11  +11    1020.1  1015.5         
12:53 26.03 С  16 км    ясно  +15.0  +10.6  75  +13  +13    1020.6  1015.9         
13:53 26.03 С  6
{10} 
16 км    ясно  +16.7  +10.6  67  +16  +17    1020.6  1016.2         
14:53 26.03 СВ  16 км    2/2 840 м  +18.3  +10.6  61  +18  +20    1020.5  1015.9         
15:14 26.03 С  16 км    8/8 840 м  +18.3  +10.0  58  +18  +19      1015.9         
15:53 26.03 С  16 км    8/8 840 м  +18.3  +9.4  56  +18  +19    1020.3  1015.9         
16:00 26.03 С  16 км    10/10 990 м  +18.9  +9.4  54  +19  +19      1015.9         
16:53 26.03 С  7
{10} 
16 км    10/10 1170 м  +18.9  +8.3  50  +19  +19    1020.0  1015.5  +12.8  +20.6     
17:53 26.03 СЗ  7
{11} 
16 км    8/8 1170 м  +19.4  +8.3  49  +20  +20    1019.5  1014.8         
18:53 26.03 С  7
{11} 
16 км    10/10 1140 м  +20.0  +8.3  47  +21  +21  комфорт  1019.4  1014.8         
19:53 26.03 СЗ  8
{11} 
16 км    10/10 1020 м  +18.3  +7.8  50  +18  +18    1019.6  1015.2         
20:53 26.03 СЗ  8
{11} 
16 км    10/10 990 м  +16.7  +7.2  53  +15  +15    1019.8  1015.2         

 

Местоположение метеостанции Pensacola Regional Airport: широта 30.4781 долгота -87.1869 высота над уровнем моря 36 м.

В архиве по умолчанию представлена погода в Пенсаколе за последние 1-2 суток. Обновление информации о фактической погоде в базе происходит ежечасно! Архивные данные за месяц целиком и за предыдущие месяцы Вы можете получить, выбрав интересующий диапазон дат из раскрывающегося списка и нажав кнопку "Ввод!".

Внимание! Архив погоды МЕТАР в базе сайта в настоящее время начинается c 1 января 2011 г. Нет смысла пытаться выбрать более раннюю дату.

Внимание! Время в таблицах - всемирное. Для получения местного времени необходимо прибавить поправку, которая в Пенсаколе равна -6 ч.

Ветер - указаны скорость ветра в м/с и направление, откуда дует ветер: С - северный, СВ - северо-восточный, В - восточный, ЮВ - юго-восточный, Ю - южный, ЮЗ - юго-западный, З - западный, СЗ - северо-западный.
Видимость - горизонтальная дальность видимости в метрах или километрах. При видимости от 1 до 10 км при отсутствии осадков обычно наблюдается дымка, при ухудшении видимости до 1 км и менее - туман. В сухую погоду видимость может ухудшаться дымом, пылью или мглою.
Атмосферные явления - указаны явления, наблюдавшиеся в указанный момент времени.
Облачность - указаны через наклонную черту верхняя и нижняя облачность в баллах и высота нижней границы облаков в метрах. Внимание: облачность, как и прочие метеорологические величины в США измеряются автоматическими метеостанциями. Указанные значения в баллах носят условный характер и показывают процент времени, в течение которого, в среднем, лазерный луч высотомера отражался от облаков обратно.
T - Температура воздуха - температура, измеренная на высоте 2 м над землей.
Td - Температура точки росы - температура, при понижении до которой содержащийся в воздухе водяной пар достигнет насыщения.
f - Относительная влажность воздуха - влажноcть воздуха, измеренная на высоте 2 м над землей.
Te - Эффективная температура - температура, которую ощущает одетый по сезону человек в тени. Характеристика душности погоды. При расчете учитывается влияние влажности воздуха и скорости ветра на теплоощущения человека.
Tes - Эффективная температура на солнце - температура, которую ощущает человек, с поправкой на солнечный нагрев. Характеристика знойности погоды. Зависит от высоты солнца над горизонтом, облачности и скорости ветра. Ночью, в пасмурную погоду, а также при ветре 12 м/с и более поправка равна нулю.
P - Атмосферное давление - приведенное к уровню моря атмосферное давление.
Po - Атмосферное давление - измеренное на уровне метеостанции атмосферное давление.
Tmin - Минимальная температура - минимум температуры воздуха на высоте 2 м над землей.
Tmax - Максимальная температура - максимум температуры воздуха на высоте 2 м над землей.
R - Количество осадков - Количество выпавших осадков за 3 или 6 часов, мм.
SD - Снежный покров - Высота снежного покрова, см.